Regional Weather Roundup
Issued by NWS

Home | Current Version | Previous Version | Text Only | Print | Product List | Glossary Off
Versions: 1 2 3 4 5 6 7 8 9 10 11 12 13 14 15 16 17 18 19 20 21 22 23 24 25 26 27 28 29 30 31 32 33 34 35 36 37 38 39 40 41 42 43 44 45 46 47 48 49 50

000
ASUS43 KBIS 300710
RWRND

NORTH DAKOTA REGIONAL WEATHER ROUNDUP
NATIONAL WEATHER SERVICE BISMARCK ND
200 AM CDT THU OCT 30 2014

NOTE: "FAIR" INDICATES FEW OR NO CLOUDS BELOW 12,000 FEET WITH NO
SIGNIFICANT WEATHER AND/OR OBSTRUCTIONS TO VISIBILITY.


NDZ001>003-009>011-017-300800-
NORTHWEST NORTH DAKOTA

CITY           SKY/WX    TMP DP  RH WIND       PRES   REMARKS
WILLISTON      CLEAR     35  31  85 NW10      30.12R
MINOT          CLEAR     31  28  89 W13       30.04R
MINOT AFB      CLEAR     30  30  99 N10       30.05R
$$

NDZ018>021-031>035-040>046-300800-
SOUTHWEST NORTH DAKOTA

CITY           SKY/WX    TMP DP  RH WIND       PRES   REMARKS
BISMARCK       CLEAR     35  35 100 CALM      30.01R
DICKINSON      CLEAR     34  31  88 NW8       30.06R
GARRISON         N/A     34  32  92 NW7       30.02R
HETTINGER ARPT CLEAR     37  33  85 NW10      30.07R
$$

NDZ004>008-012>016-024-026-027-054-300800-
NORTHEAST NORTH DAKOTA

CITY           SKY/WX    TMP DP  RH WIND       PRES   REMARKS
GRAND FORKS    CLOUDY    38  33  82 SE7       29.99R
GRND FRKS AFB  CLOUDY    37  35  92 E6        29.99R
DEVILS LAKE    CLEAR     34  25  69 NE10      29.96R
$$

NDZ022-023-025-028>030-036>039-047>053-300800-
SOUTHEAST NORTH DAKOTA

CITY           SKY/WX    TMP DP  RH WIND       PRES   REMARKS
FARGO          CLOUDY    40  35  83 SE8       29.98S
JAMESTOWN      PTCLDY    37  36  96 SW5       29.94S
$$




USA.gov is the U.S. government's official web portal to all federal, state and local government web resources and services.